Flag for Germany Weather past 2 weeks in Gorleben, Lower Saxony, Germany

Now
58 °F

Overcast.


Feels Like: 57 °F
Forecast: 52 / 63 °F
Wind: 6 mph from Southwest

Location: Marnitz

Current Time: Sep 5, 2015 at 10:26:51 AM

Latest Report: Sep 5, 2015 at 10:00 AM


Visibility: 22 mi

Pressure: 29.73 "Hg

Humidity: 85%

Dew point: 53 °F

Location of GorlebenLocation

Historic Weather in Gorleben — Graph

°F

Gorleben temperature yesterday

Maximum temperature yesterday: 64 °F (at 4:00 PM)
Minimum temperature yesterday: 48 °F (at 7:00 AM)
Average temperature yesterday: 57 °F

Past Weeks' High & Low Weather Summary

 TemperatureHumidityPressure
High85 °F (Aug 31, 6:00 PM)100% (Aug 29, 6:00 AM)30.31 "Hg (Aug 29, 6:00 AM)
Low48 °F (Sep 4, 7:00 AM)26% (Aug 21, 4:00 PM)29.67 "Hg (Aug 24, 8:00 PM)
Average63 °F76%29.95 "Hg
* Reported Aug 21 9:00 AM — Sep 5 9:00 AM, Gorleben, Weather by CustomWeather, © 2015

Note: Actual official high and low records may vary slightly from our data, if they occured in-between our weather recording intervals... More about our weather records

Advertising

Gorleben weather history for previous 24 hours

 ConditionsComfort  
Time TempWeatherWind HumidityBarometerVisibility
9:00 AM
Sat, Sep 5
57 °FOvercast.5 mph86%29.73 "Hg28 mi
8:00 AM55 °FOvercast.5 mph91%29.72 "Hg31 mi
7:00 AM55 °FOvercast.5 mph92%29.70 "Hg25 mi
6:00 AM55 °FLow clouds.5 mph94%29.70 "Hg14 mi
5:00 AM54 °FLight freezing rain. Low clouds.5 mph95%29.70 "Hg6 mi
4:00 AM53 °FDrizzle. Overcast.6 mph86%29.71 "Hg12 mi
3:00 AM56 °FOvercast.6 mph73%29.73 "Hg22 mi
2:00 AM56 °FOvercast.5 mph72%29.75 "Hg25 mi
1:00 AM55 °FPassing clouds.5 mph75%29.78 "Hg28 mi
11:00 PM
Fri, Sep 4
59 °FOvercast.5 mph66%29.81 "Hg31 mi
10:00 PM59 °FOvercast.3 mph63%29.83 "Hg37 mi
9:00 PM60 °FOvercast.3 mph63%29.83 "Hg43 mi
8:00 PM60 °FOvercast.2 mph61%29.83 "Hg43 mi
7:00 PM62 °FOvercast.2 mph59%29.83 "Hg43 mi
6:00 PM63 °FOvercast.2 mph56%29.84 "Hg43 mi
5:00 PM64 °FPartly sunny.5 mph52%29.85 "Hg43 mi
4:00 PM64 °FOvercast.5 mph53%29.86 "Hg40 mi
3:00 PM64 °FPartly sunny.6 mph54%29.88 "Hg25 mi
2:00 PM62 °FOvercast.3 mph61%29.89 "Hg34 mi
1:00 PM62 °FScattered clouds.5 mph63%29.90 "Hg25 mi
12:00 PM60 °FOvercast.5 mph67%29.91 "Hg22 mi
11:00 AM57 °FOvercast.2 mph76%29.92 "Hg9 mi
10:00 AM55 °FOvercast.2 mph86%29.92 "Hg7 mi
Weather by CustomWeather, © 2015

See weather overviewHow to use our weather pages